TimeEDT,TemperatureF,Dew PointF,Humidity,Sea Level PressureIn,VisibilityMPH,Wind Direction,Wind SpeedMPH,Gust SpeedMPH,PrecipitationIn,Events,Conditions,WindDirDegrees,DateUTC
12:56 AM,69.1,66.9,93,30.07,6.0,SSE,4.6,-,0.06,Rain,Rain,150,2013-08-08 04:56:00
1:56 AM,70.0,66.9,90,30.05,10.0,SSE,4.6,-,0.02,Rain,Light Rain,150,2013-08-08 05:56:00
2:29 AM,69.8,66.2,88,30.06,2.5,South,6.9,-,0.08,Rain,Rain,170,2013-08-08 06:29:00
2:31 AM,69.8,66.2,88,30.06,3.0,SSE,6.9,-,0.08,Rain,Rain,160,2013-08-08 06:31:00
2:56 AM,70.0,68.0,93,30.04,10.0,SSE,9.2,-,0.09,Rain,Light Rain,160,2013-08-08 06:56:00
3:56 AM,70.0,68.0,93,30.04,10.0,SSW,3.5,-,0.00,Rain,Light Rain,200,2013-08-08 07:56:00
4:22 AM,69.8,66.2,88,30.05,10.0,South,6.9,-,0.00,,Overcast,170,2013-08-08 08:22:00
4:56 AM,69.1,66.9,93,30.04,10.0,South,5.8,-,0.00,,Overcast,170,2013-08-08 08:56:00
5:08 AM,69.8,66.2,88,30.06,10.0,SSE,3.5,-,N/A,,Overcast,160,2013-08-08 09:08:00
5:28 AM,69.8,66.2,88,30.06,10.0,Calm,Calm,-,N/A,,Overcast,0,2013-08-08 09:28:00
5:36 AM,69.8,66.2,88,30.06,9.0,SSE,4.6,-,N/A,,Overcast,150,2013-08-08 09:36:00
5:56 AM,69.1,66.9,93,30.05,6.0,SSE,5.8,-,N/A,,Overcast,150,2013-08-08 09:56:00
6:05 AM,69.8,66.2,88,30.06,6.0,SSE,4.6,-,N/A,,Overcast,150,2013-08-08 10:05:00
6:13 AM,69.8,66.2,88,30.06,2.5,Variable,4.6,-,N/A,,Overcast,0,2013-08-08 10:13:00
6:43 AM,69.8,66.2,88,30.06,1.2,SSE,3.5,-,N/A,,Overcast,160,2013-08-08 10:43:00
6:56 AM,69.1,66.9,93,30.05,1.2,SSE,4.6,-,0.02,Rain,Light Rain,160,2013-08-08 10:56:00
7:56 AM,70.0,69.1,97,30.05,1.5,South,3.5,-,0.00,,Overcast,180,2013-08-08 11:56:00
8:56 AM,72.0,69.1,91,30.05,1.5,South,3.5,-,N/A,,Overcast,180,2013-08-08 12:56:00
9:56 AM,72.0,70.0,93,30.06,2.5,South,4.6,-,N/A,,Overcast,180,2013-08-08 13:56:00
9:58 AM,71.6,69.8,94,30.07,2.5,South,4.6,-,N/A,,Overcast,180,2013-08-08 13:58:00
10:56 AM,73.0,70.0,90,30.05,3.0,South,5.8,-,N/A,,Overcast,180,2013-08-08 14:56:00
11:56 AM,75.0,70.0,84,30.04,3.0,SSE,8.1,-,N/A,,Overcast,150,2013-08-08 15:56:00
12:56 PM,73.9,70.0,87,30.05,4.0,SE,6.9,-,N/A,,Overcast,140,2013-08-08 16:56:00
1:56 PM,75.9,71.1,85,30.04,5.0,Variable,6.9,-,N/A,,Overcast,0,2013-08-08 17:56:00
2:56 PM,79.0,71.1,77,30.04,8.0,ESE,5.8,-,N/A,,Mostly Cloudy,120,2013-08-08 18:56:00
3:56 PM,78.1,71.1,79,30.03,9.0,SE,8.1,-,N/A,,Mostly Cloudy,130,2013-08-08 19:56:00
4:56 PM,77.0,71.1,82,30.02,10.0,SSE,10.4,-,N/A,,Mostly Cloudy,150,2013-08-08 20:56:00
5:56 PM,75.0,71.1,87,30.02,6.0,SSE,9.2,-,0.00,,Mostly Cloudy,150,2013-08-08 21:56:00
6:56 PM,73.9,69.1,85,30.01,10.0,South,4.6,-,N/A,,Mostly Cloudy,170,2013-08-08 22:56:00
7:56 PM,72.0,69.1,91,30.02,10.0,SE,5.8,-,N/A,,Mostly Cloudy,140,2013-08-08 23:56:00
8:56 PM,72.0,69.1,91,30.03,10.0,SE,5.8,-,N/A,,Mostly Cloudy,140,2013-08-09 00:56:00
9:56 PM,72.0,69.1,91,30.03,10.0,SE,4.6,-,N/A,,Mostly Cloudy,140,2013-08-09 01:56:00
10:56 PM,72.0,70.0,93,30.02,9.0,SSE,4.6,-,N/A,,Clear,150,2013-08-09 02:56:00
11:56 PM,72.0,69.1,91,30.01,10.0,South,6.9,-,N/A,,Clear,170,2013-08-09 03:56:00